Regional Weather Roundup
Issued by NWS Binghamton, NY

Home | Current Version | Previous Version | Text Only | Print | Product List | Glossary On
Versions: 1 2 3 4 5 6 7 8 9 10 11 12 13 14 15 16 17 18 19 20 21 22 23 24 25 26 27 28 29 30 31 32 33 34 35 36 37 38 39 40 41 42 43 44 45 46 47 48 49 50
000
ASUS41 KBGM 201010
RWRBGM

REGIONAL WEATHER ROUNDUP
NATIONAL WEATHER SERVICE BINGHAMTON NY
600 AM EDT FRI OCT 20 2017

Note: "fair" indicates few or no clouds below 12,000 feet with no
significant weather and/or obstructions to visibility.

* = Station(s) that does not report precipitation, such as rain,
snow, etc, also no thunder or fog.

NYZ009-015>018-022>025-036-037-044>046-055>057-062-201100
...Central New York...

CITY           SKY/WX    TMP DP  RH WIND       PRES   REMARKS
Binghamton     FAIR      47  41  80 W5        30.15R
Cortland       FAIR      37  37 100 CALM      30.16R
Dansville      FAIR      44  41  89 CALM      30.20R
Elmira         FAIR      45  44  97 SW8       30.17R
Seneca Falls   SUNNY     43  37  81 W5        30.18R
Ithaca         FAIR      38  37  97 CALM      30.17R
Hornell          N/A     37  36  93 CALM      30.24R FOG
Monticello     FAIR      49  38  65 W6        30.12R
Oneonta        CLEAR     46 N/A N/A SW3       30.13S
Penn Yan       NOT AVBL
Rome           FAIR      43  42  97 NW5       30.14R
Sidney         CLEAR     39  39 100 W5        30.16R
Syracuse       FAIR      48  40  73 W8        30.14R
$$

PAZ038>040-043-044-047-048-072-201100
...Northeast Pennsylvania...

CITY           SKY/WX    TMP DP  RH WIND       PRES   REMARKS
Hazleton       FAIR      52  43  71 W6        30.19R
Scranton       FAIR      50  45  83 W3        30.16R
$$
&&
KEY
WCI = Wind Chill Index
VSB = Visibility
HX  = Heat Index
$$



USA.gov is the U.S. government's official web portal to all federal, state and local government web resources and services.